Showing default

LANDSAT 1 (ERTS 1), 6126

Orbit data source: Space-Track

LANDSAT 1 (ERTS 1), 6126 is a payload satellite owned by GSFC (US) in SSO that was launched on Sun, 23 Jul 1972 UTC via a DELTA 0900 launch vehicle from the Air Force Western Test Range (AFWTR). Payload-class satellites include a variety of spacecraft equipped with specific instruments for various scientific and technological missions. These include communications satellites like Starlink; space stations such as the ISS; scientific satellites like the Hubble; Earth observation satellites from companies like Planet Labs, Umbra, and HawkEye 360; GPS; miniature CubeSats for education and research; and military/defense satellites.

Loading next visibility...
Identifier
6126, 1972-058A
Orbit
SSO
Country
Flag of USUS
Related business
Manufacturer
GE/MSVD
Mission
Non-operational spacecraft
Bus & Motor
NIMBUS, Unknown motor
Mass
891 kg wet, 891 kg dry
Launch date (UTC)
1972-07-23 (54 years ago)
Launch vehicle
DELTA 0900
Launch site
Air Force Western Test Range (AFWTR)
Object type
Payload
Rocket body
Debris
Shape & HBR
Unknown
Radar Cross Section
Large (>1 m²)

Expand to show TLE details & history
Last TLE update: 14 hours ago

TLE from 14 hours ago
0 LANDSAT 1 (ERTS 1)
1 06126U 72058A   26163.30831891  .00000110  00000-0  11029-3 0  9996
2 06126  99.3369 192.9690 0006931 270.1352  89.9016 13.97839315747270
Epoch: 2026-06-12T07:23Z
TLE epoch observation values (Epoch: 2026-06-12T07:23:58.753Z)
Latitude
-0.00004°
Longitude
-178.66542°
Altitude
904.145 km
Speed
7.4 km/s
True Right ascension
12h 51m 52s
True Declination
0° 00' 00"
Sunlit
Object was in daylight at epoch
Visualization orbit readout
Latitude
Unknown
Longitude
Unknown
Altitude
Unknown
Speed
Unknown
Apparent Right ascension
Unknown
Apparent Declination
Unknown
Sunlit
N/A
Visualization observer readout
Local Sidereal Time
07:21:25
Azimuth
Unknown
Elevation
Unknown
Doppler factor
Unknown
Orbital elements
Apogee altitude
903.549 km
Perigee altitude
893.462 km
Semi-major axis
7,276.643 km
Eccentricity
0.00069
Inclination
99.3369°
RAAN
192.969°
Arg. of periapsis
270.1352°
True anomaly
89.98102°
Mean anomaly
89.9016°
Eccentric anomaly
89.94131°
Mean motion
3.49661 °/min
Orbital period
102.96 mins
BSTAR
0.00011029
Loading maneuver chart data...
Computing Atmospheric mass density...

Documentation

Showing up to 5 results
|